Time,TemperatureF,DewpointF,PressureIn,WindDirection,WindDirectionDegrees,WindSpeedMPH,WindSpeedGustMPH,Humidity,HourlyPrecipIn,Conditions,Clouds,dailyrainin,SoftwareType,DateUTC
2013-07-13 00:02:00,65.5,59.9,30.02,NE,47,0.0,0.0,82,0.00,CLR,,0.00,WeatherDisplay:10.37,2013-07-13 05:02:00,
2013-07-13 00:07:00,65.3,60.0,30.02,NE,47,0.0,0.0,83,0.00,CLR,,0.00,WeatherDisplay:10.37,2013-07-13 05:07:00,
2013-07-13 00:12:00,65.2,59.9,30.02,NE,47,0.0,0.0,83,0.00,CLR,,0.00,WeatherDisplay:10.37,2013-07-13 05:12:00,
2013-07-13 00:17:00,65.2,59.9,30.02,NE,47,0.0,0.0,83,0.00,CLR,,0.00,WeatherDisplay:10.37,2013-07-13 05:17:00,
2013-07-13 00:22:00,65.0,59.7,30.02,NE,47,0.0,0.0,83,0.00,CLR,,0.00,WeatherDisplay:10.37,2013-07-13 05:22:00,
2013-07-13 00:27:00,64.8,59.9,30.02,NE,47,0.0,0.0,84,0.00,CLR,,0.00,WeatherDisplay:10.37,2013-07-13 05:27:00,
2013-07-13 00:32:00,64.8,59.9,30.02,NE,47,0.0,0.0,84,0.00,CLR,,0.00,WeatherDisplay:10.37,2013-07-13 05:32:00,
2013-07-13 00:37:00,64.7,59.8,30.02,NE,47,0.0,0.0,84,0.00,CLR,,0.00,WeatherDisplay:10.37,2013-07-13 05:37:00,
2013-07-13 00:42:00,64.5,59.9,30.02,NE,47,0.0,0.0,85,0.00,CLR,,0.00,WeatherDisplay:10.37,2013-07-13 05:42:00,
2013-07-13 00:47:00,64.3,59.7,30.02,NE,47,0.0,1.1,85,0.00,CLR,,0.00,WeatherDisplay:10.37,2013-07-13 05:47:00,
2013-07-13 00:52:00,64.2,59.6,30.02,NE,47,0.0,0.0,85,0.00,CLR,,0.00,WeatherDisplay:10.37,2013-07-13 05:52:00,
2013-07-13 00:57:00,64.2,59.6,30.02,NE,47,0.0,0.0,85,0.00,CLR,,0.00,WeatherDisplay:10.37,2013-07-13 05:57:00,
2013-07-13 01:02:00,64.0,59.4,30.02,NE,47,0.0,0.0,85,0.00,CLR,,0.00,WeatherDisplay:10.37,2013-07-13 06:02:00,
2013-07-13 01:07:00,63.9,59.6,30.02,NE,47,0.0,0.0,86,0.00,CLR,,0.00,WeatherDisplay:10.37,2013-07-13 06:07:00,
2013-07-13 01:12:00,63.9,59.6,30.02,NE,47,0.0,0.0,86,0.00,CLR,,0.00,WeatherDisplay:10.37,2013-07-13 06:12:00,
2013-07-13 01:17:00,63.7,59.4,30.02,NE,47,0.0,0.0,86,0.00,CLR,,0.00,WeatherDisplay:10.37,2013-07-13 06:17:00,
2013-07-13 01:22:00,63.5,59.2,30.02,NE,47,0.0,0.0,86,0.00,CLR,,0.00,WeatherDisplay:10.37,2013-07-13 06:22:00,
2013-07-13 01:27:00,63.4,59.1,30.01,NE,47,0.0,0.0,86,0.00,CLR,,0.00,WeatherDisplay:10.37,2013-07-13 06:27:00,
2013-07-13 01:33:00,63.2,58.9,30.02,NE,47,0.0,0.0,86,0.00,CLR,,0.00,WeatherDisplay:10.37,2013-07-13 06:33:00,
2013-07-13 01:38:00,63.2,59.3,30.02,NE,47,0.0,0.0,87,0.00,CLR,,0.00,WeatherDisplay:10.37,2013-07-13 06:38:00,
2013-07-13 01:43:00,63.2,59.3,30.02,NE,47,0.0,0.0,87,0.00,CLR,,0.00,WeatherDisplay:10.37,2013-07-13 06:43:00,
2013-07-13 01:48:00,63.2,59.3,30.02,NE,47,0.0,0.0,87,0.00,CLR,,0.00,WeatherDisplay:10.37,2013-07-13 06:48:00,
2013-07-13 01:53:00,63.1,59.2,30.02,NE,47,0.0,0.0,87,0.00,CLR,,0.00,WeatherDisplay:10.37,2013-07-13 06:53:00,
2013-07-13 01:58:00,63.1,59.2,30.02,NE,47,0.0,0.0,87,0.00,CLR,,0.00,WeatherDisplay:10.37,2013-07-13 06:58:00,
2013-07-13 02:03:00,63.1,59.2,30.02,NE,47,0.0,0.0,87,0.00,CLR,,0.00,WeatherDisplay:10.37,2013-07-13 07:03:00,
2013-07-13 02:08:00,63.1,59.5,30.02,NE,47,0.0,0.0,88,0.00,CLR,,0.00,WeatherDisplay:10.37,2013-07-13 07:08:00,
2013-07-13 02:13:00,63.1,59.5,30.02,NE,47,0.0,0.0,88,0.00,CLR,,0.00,WeatherDisplay:10.37,2013-07-13 07:13:00,
2013-07-13 02:18:00,62.9,59.3,30.02,NE,47,0.0,0.0,88,0.00,CLR,,0.00,WeatherDisplay:10.37,2013-07-13 07:18:00,
2013-07-13 02:23:00,62.9,59.3,30.02,NE,47,0.0,0.0,88,0.00,CLR,,0.00,WeatherDisplay:10.37,2013-07-13 07:23:00,
2013-07-13 02:28:00,62.9,59.6,30.02,NE,47,0.0,0.0,89,0.00,CLR,,0.00,WeatherDisplay:10.37,2013-07-13 07:28:00,
2013-07-13 02:33:00,62.7,59.1,30.03,NE,47,0.0,0.0,88,0.00,CLR,,0.00,WeatherDisplay:10.37,2013-07-13 07:33:00,
2013-07-13 02:38:00,62.7,59.1,30.03,NE,47,0.0,0.0,88,0.00,CLR,,0.00,WeatherDisplay:10.37,2013-07-13 07:38:00,
2013-07-13 02:43:00,62.6,59.0,30.03,NE,47,0.0,0.0,88,0.00,CLR,,0.00,WeatherDisplay:10.37,2013-07-13 07:43:00,
2013-07-13 02:48:00,62.4,58.8,30.03,NE,47,0.0,0.0,88,0.00,CLR,,0.00,WeatherDisplay:10.37,2013-07-13 07:48:00,
2013-07-13 02:53:00,62.3,58.7,30.03,NE,47,0.0,0.0,88,0.00,CLR,,0.00,WeatherDisplay:10.37,2013-07-13 07:53:00,
2013-07-13 02:58:00,62.1,58.5,30.03,NE,47,0.0,0.0,88,0.00,CLR,,0.00,WeatherDisplay:10.37,2013-07-13 07:58:00,
2013-07-13 03:03:00,62.1,58.5,30.03,NE,47,0.0,0.0,88,0.00,CLR,,0.00,WeatherDisplay:10.37,2013-07-13 08:03:00,
2013-07-13 03:08:00,62.0,58.7,30.03,NE,47,0.0,0.0,89,0.00,CLR,,0.00,WeatherDisplay:10.37,2013-07-13 08:08:00,
2013-07-13 03:13:00,62.0,58.7,30.03,NE,47,0.0,0.0,89,0.00,CLR,,0.00,WeatherDisplay:10.37,2013-07-13 08:13:00,
2013-07-13 03:18:00,62.0,58.7,30.03,NE,47,0.0,0.0,89,0.00,CLR,,0.00,WeatherDisplay:10.37,2013-07-13 08:18:00,
2013-07-13 03:23:00,61.8,58.5,30.03,NE,47,0.0,0.0,89,0.00,CLR,,0.00,WeatherDisplay:10.37,2013-07-13 08:23:00,
2013-07-13 03:28:00,61.6,58.3,30.03,NE,47,0.0,0.0,89,0.00,CLR,,0.00,WeatherDisplay:10.37,2013-07-13 08:28:00,
2013-07-13 03:33:00,61.5,58.2,30.03,NE,47,0.0,0.0,89,0.00,CLR,,0.00,WeatherDisplay:10.37,2013-07-13 08:33:00,
2013-07-13 03:38:00,61.3,58.0,30.04,NE,47,0.0,0.0,89,0.00,CLR,,0.00,WeatherDisplay:10.37,2013-07-13 08:38:00,
2013-07-13 03:43:00,61.3,58.0,30.03,NE,47,0.0,0.0,89,0.00,CLR,,0.00,WeatherDisplay:10.37,2013-07-13 08:43:00,
2013-07-13 03:48:00,61.2,57.9,30.03,NE,47,0.0,0.0,89,0.00,CLR,,0.00,WeatherDisplay:10.37,2013-07-13 08:48:00,
2013-07-13 03:53:00,61.0,57.7,30.04,NE,47,0.0,0.0,89,0.00,CLR,,0.00,WeatherDisplay:10.37,2013-07-13 08:53:00,
2013-07-13 03:58:00,60.9,57.6,30.04,NE,47,0.0,0.0,89,0.00,CLR,,0.00,WeatherDisplay:10.37,2013-07-13 08:58:00,
2013-07-13 04:03:00,60.7,57.4,30.04,NE,47,0.0,0.0,89,0.00,CLR,,0.00,WeatherDisplay:10.37,2013-07-13 09:03:00,
2013-07-13 04:08:00,60.5,57.2,30.03,NE,47,0.0,0.0,89,0.00,CLR,,0.00,WeatherDisplay:10.37,2013-07-13 09:08:00,
2013-07-13 04:13:00,60.5,57.2,30.03,NE,47,0.0,0.0,89,0.00,CLR,,0.00,WeatherDisplay:10.37,2013-07-13 09:13:00,
2013-07-13 04:18:00,60.4,57.1,30.03,NE,47,0.0,0.0,89,0.00,CLR,,0.00,WeatherDisplay:10.37,2013-07-13 09:18:00,
2013-07-13 04:23:00,60.2,56.9,30.03,NE,47,0.0,0.0,89,0.00,CLR,,0.00,WeatherDisplay:10.37,2013-07-13 09:23:00,
2013-07-13 04:28:00,60.1,56.8,30.03,NE,47,0.0,0.0,89,0.00,CLR,,0.00,WeatherDisplay:10.37,2013-07-13 09:28:00,
2013-07-13 04:33:00,60.1,57.2,30.03,NE,47,0.0,0.0,90,0.00,CLR,,0.00,WeatherDisplay:10.37,2013-07-13 09:33:00,
2013-07-13 04:38:00,59.9,57.0,30.03,NE,47,0.0,0.0,90,0.00,CLR,,0.00,WeatherDisplay:10.37,2013-07-13 09:38:00,
2013-07-13 04:43:00,59.9,57.0,30.03,NE,47,0.0,0.0,90,0.00,CLR,,0.00,WeatherDisplay:10.37,2013-07-13 09:43:00,
2013-07-13 04:48:00,59.8,56.9,30.03,NE,47,0.0,0.0,90,0.00,CLR,,0.00,WeatherDisplay:10.37,2013-07-13 09:48:00,
2013-07-13 04:53:00,59.8,56.9,30.03,NE,47,0.0,0.0,90,0.00,CLR,,0.00,WeatherDisplay:10.37,2013-07-13 09:53:00,
2013-07-13 04:58:00,59.6,56.7,30.03,NE,47,0.0,0.0,90,0.00,CLR,,0.00,WeatherDisplay:10.37,2013-07-13 09:58:00,
2013-07-13 05:03:00,59.6,56.7,30.03,NE,47,0.0,0.0,90,0.00,CLR,,0.00,WeatherDisplay:10.37,2013-07-13 10:03:00,
2013-07-13 05:08:00,59.6,56.7,30.03,NE,47,0.0,0.0,90,0.00,CLR,,0.00,WeatherDisplay:10.37,2013-07-13 10:08:00,
2013-07-13 05:13:00,59.6,56.7,30.03,NE,47,0.0,0.0,90,0.00,CLR,,0.00,WeatherDisplay:10.37,2013-07-13 10:13:00,
2013-07-13 05:18:00,59.6,56.7,30.04,NE,47,0.0,0.0,90,0.00,CLR,,0.00,WeatherDisplay:10.37,2013-07-13 10:18:00,
2013-07-13 05:23:00,59.5,56.6,30.04,NE,47,0.0,0.0,90,0.00,CLR,,0.00,WeatherDisplay:10.37,2013-07-13 10:23:00,
2013-07-13 05:28:00,59.5,56.6,30.04,NE,47,0.0,0.0,90,0.00,CLR,,0.00,WeatherDisplay:10.37,2013-07-13 10:28:00,
2013-07-13 05:33:00,59.5,56.6,30.05,NE,47,0.0,0.0,90,0.00,CLR,,0.00,WeatherDisplay:10.37,2013-07-13 10:33:00,
2013-07-13 05:38:00,59.6,57.0,30.05,NE,47,0.0,1.5,91,0.00,CLR,,0.00,WeatherDisplay:10.37,2013-07-13 10:38:00,
2013-07-13 05:43:00,59.8,57.2,30.05,NE,47,0.0,0.0,91,0.00,CLR,,0.00,WeatherDisplay:10.37,2013-07-13 10:43:00,
2013-07-13 05:48:00,59.9,57.3,30.05,NE,47,0.0,1.5,91,0.00,CLR,,0.00,WeatherDisplay:10.37,2013-07-13 10:48:00,
2013-07-13 05:53:00,60.2,57.6,30.05,NE,47,0.9,1.1,91,0.00,CLR,,0.00,WeatherDisplay:10.37,2013-07-13 10:53:00,
2013-07-13 05:58:00,60.5,57.9,30.05,NE,47,0.0,0.0,91,0.00,CLR,,0.00,WeatherDisplay:10.37,2013-07-13 10:58:00,
2013-07-13 06:03:00,60.7,58.1,30.05,NE,47,2.0,3.5,91,0.00,CLR,,0.00,WeatherDisplay:10.37,2013-07-13 11:03:00,
2013-07-13 06:08:00,61.0,58.0,30.05,NE,47,0.0,0.0,90,0.00,CLR,,0.00,WeatherDisplay:10.37,2013-07-13 11:08:00,
2013-07-13 06:13:00,61.3,58.3,30.05,NE,47,0.0,1.1,90,0.00,CLR,,0.00,WeatherDisplay:10.37,2013-07-13 11:13:00,
2013-07-13 06:18:00,61.5,58.5,30.05,NE,47,1.3,1.3,90,0.00,CLR,,0.00,WeatherDisplay:10.37,2013-07-13 11:18:00,
2013-07-13 06:23:00,61.6,58.3,30.04,NE,47,2.2,5.8,89,0.00,CLR,,0.00,WeatherDisplay:10.37,2013-07-13 11:23:00,
2013-07-13 06:28:00,61.8,58.5,30.04,NE,47,0.0,3.5,89,0.00,CLR,,0.00,WeatherDisplay:10.37,2013-07-13 11:28:00,
2013-07-13 06:33:00,62.0,58.4,30.04,NE,47,1.1,3.5,88,0.00,CLR,,0.00,WeatherDisplay:10.37,2013-07-13 11:33:00,
2013-07-13 06:38:00,62.1,58.5,30.03,NE,47,0.9,4.6,88,0.00,CLR,,0.00,WeatherDisplay:10.37,2013-07-13 11:38:00,
2013-07-13 06:43:00,62.4,58.5,30.03,NE,47,4.2,4.2,87,0.00,CLR,,0.00,WeatherDisplay:10.37,2013-07-13 11:43:00,
2013-07-13 06:48:00,62.7,58.8,30.03,NE,47,0.2,1.1,87,0.00,CLR,,0.00,WeatherDisplay:10.37,2013-07-13 11:48:00,
2013-07-13 06:53:00,63.1,59.2,30.03,NE,47,0.2,1.1,87,0.00,CLR,,0.00,WeatherDisplay:10.37,2013-07-13 11:53:00,
2013-07-13 06:58:00,63.4,59.1,30.03,NE,47,0.8,1.1,86,0.00,CLR,,0.00,WeatherDisplay:10.37,2013-07-13 11:58:00,
2013-07-13 07:03:00,63.7,59.4,30.04,NE,47,0.3,0.0,86,0.00,CLR,,0.00,WeatherDisplay:10.37,2013-07-13 12:03:00,
2013-07-13 07:08:00,63.9,59.6,30.04,NE,47,2.7,5.8,86,0.00,CLR,,0.00,WeatherDisplay:10.37,2013-07-13 12:08:00,
2013-07-13 07:13:00,64.0,59.4,30.05,NE,47,2.3,3.0,85,0.00,CLR,,0.00,WeatherDisplay:10.37,2013-07-13 12:13:00,
2013-07-13 07:18:00,64.2,59.6,30.05,NE,47,0.0,0.0,85,0.00,CLR,,0.00,WeatherDisplay:10.37,2013-07-13 12:18:00,
2013-07-13 07:23:00,64.3,59.4,30.05,NE,40,0.0,1.1,84,0.00,CLR,,0.00,WeatherDisplay:10.37,2013-07-13 12:23:00,
2013-07-13 07:28:00,64.5,59.6,30.05,NE,40,0.0,0.0,84,0.00,CLR,,0.00,WeatherDisplay:10.37,2013-07-13 12:28:00,
2013-07-13 07:33:00,64.7,59.8,30.05,NE,40,0.8,3.5,84,0.00,CLR,,0.00,WeatherDisplay:10.37,2013-07-13 12:33:00,
2013-07-13 07:38:00,65.0,60.0,30.06,NE,40,0.1,1.1,84,0.00,CLR,,0.00,WeatherDisplay:10.37,2013-07-13 12:38:00,
2013-07-13 07:43:00,65.3,60.0,30.06,NE,40,0.0,3.5,83,0.00,CLR,,0.00,WeatherDisplay:10.37,2013-07-13 12:43:00,
2013-07-13 07:48:00,65.5,60.2,30.06,NE,44,1.1,5.8,83,0.00,CLR,,0.00,WeatherDisplay:10.37,2013-07-13 12:48:00,
2013-07-13 07:53:00,65.8,60.5,30.07,NE,44,0.9,4.6,83,0.00,CLR,,0.00,WeatherDisplay:10.37,2013-07-13 12:53:00,
2013-07-13 07:58:00,66.1,60.4,30.07,NE,44,5.3,5.8,82,0.00,CLR,,0.00,WeatherDisplay:10.37,2013-07-13 12:58:00,
2013-07-13 08:03:00,66.6,60.9,30.08,NE,44,0.0,1.1,82,0.00,CLR,,0.00,WeatherDisplay:10.37,2013-07-13 13:03:00,
2013-07-13 08:08:00,66.9,61.2,30.08,NE,44,0.8,4.6,82,0.00,CLR,,0.00,WeatherDisplay:10.37,2013-07-13 13:08:00,
2013-07-13 08:13:00,67.4,61.7,30.07,North,11,1.5,4.6,82,0.00,CLR,,0.00,WeatherDisplay:10.37,2013-07-13 13:13:00,
2013-07-13 08:18:00,67.8,61.8,30.07,NE,42,6.6,6.6,81,0.00,CLR,,0.00,WeatherDisplay:10.37,2013-07-13 13:18:00,
2013-07-13 08:23:00,68.3,61.9,30.07,NNE,30,0.0,0.0,80,0.00,CLR,,0.00,WeatherDisplay:10.37,2013-07-13 13:23:00,
2013-07-13 08:28:00,68.6,62.2,30.06,NE,45,0.8,3.5,80,0.00,CLR,,0.00,WeatherDisplay:10.37,2013-07-13 13:28:00,
2013-07-13 08:33:00,68.9,62.1,30.06,North,5,5.4,5.8,79,0.00,CLR,,0.00,WeatherDisplay:10.37,2013-07-13 13:33:00,
2013-07-13 08:38:00,69.1,62.7,30.06,NE,35,4.0,4.6,80,0.00,CLR,,0.00,WeatherDisplay:10.37,2013-07-13 13:38:00,
2013-07-13 08:43:00,69.4,62.6,30.06,NE,35,0.5,3.5,79,0.00,CLR,,0.00,WeatherDisplay:10.37,2013-07-13 13:43:00,
2013-07-13 08:49:00,69.9,63.1,30.05,NE,45,0.3,3.0,79,0.00,CLR,,0.00,WeatherDisplay:10.37,2013-07-13 13:49:00,
2013-07-13 08:54:00,70.4,63.2,30.05,NE,45,1.4,4.6,78,0.00,CLR,,0.00,WeatherDisplay:10.37,2013-07-13 13:54:00,
2013-07-13 08:59:00,70.8,63.2,30.06,NE,35,1.4,3.5,77,0.00,CLR,,0.00,WeatherDisplay:10.37,2013-07-13 13:59:00,
2013-07-13 09:04:00,71.1,63.5,30.07,NNE,28,2.7,4.6,77,0.00,CLR,,0.00,WeatherDisplay:10.37,2013-07-13 14:04:00,
2013-07-13 09:09:00,71.5,63.5,30.08,NE,44,3.5,4.6,76,0.00,CLR,,0.00,WeatherDisplay:10.37,2013-07-13 14:09:00,
2013-07-13 09:14:00,71.6,62.9,30.08,NNE,23,5.1,5.8,74,0.00,CLR,,0.00,WeatherDisplay:10.37,2013-07-13 14:14:00,
2013-07-13 09:19:00,71.8,63.1,30.08,NE,38,1.9,3.5,74,0.00,CLR,,0.00,WeatherDisplay:10.37,2013-07-13 14:19:00,
2013-07-13 09:24:00,72.1,63.4,30.08,NNE,30,1.1,4.6,74,0.00,CLR,,0.00,WeatherDisplay:10.37,2013-07-13 14:24:00,
2013-07-13 09:29:00,72.7,63.9,30.08,ENE,76,2.4,3.5,74,0.00,CLR,,0.00,WeatherDisplay:10.37,2013-07-13 14:29:00,
2013-07-13 09:34:00,73.2,63.6,30.07,NE,56,1.7,3.5,72,0.00,CLR,,0.00,WeatherDisplay:10.37,2013-07-13 14:34:00,
2013-07-13 09:39:00,73.5,63.1,30.07,ENE,67,3.5,4.6,70,0.00,CLR,,0.00,WeatherDisplay:10.37,2013-07-13 14:39:00,
2013-07-13 09:44:00,73.9,63.9,30.07,NNE,28,1.7,4.6,71,0.00,CLR,,0.00,WeatherDisplay:10.37,2013-07-13 14:44:00,
2013-07-13 09:49:00,74.4,63.6,30.06,NE,35,0.8,3.0,69,0.00,CLR,,0.00,WeatherDisplay:10.37,2013-07-13 14:49:00,
2013-07-13 09:54:00,74.9,63.6,30.06,NNE,27,5.3,8.1,68,0.00,CLR,,0.00,WeatherDisplay:10.37,2013-07-13 14:54:00,
2013-07-13 09:59:00,75.3,64.0,30.06,NE,50,1.4,3.5,68,0.00,CLR,,0.00,WeatherDisplay:10.37,2013-07-13 14:59:00,
2013-07-13 10:04:00,75.6,63.9,30.06,WNW,297,0.6,3.0,67,0.00,CLR,,0.00,WeatherDisplay:10.37,2013-07-13 15:04:00,
2013-07-13 10:09:00,76.0,63.4,30.06,NE,46,3.9,5.8,65,0.00,CLR,,0.00,WeatherDisplay:10.37,2013-07-13 15:09:00,
2013-07-13 10:14:00,76.3,63.2,30.06,North,355,6.7,8.1,64,0.00,CLR,,0.00,WeatherDisplay:10.37,2013-07-13 15:14:00,
2013-07-13 10:19:00,76.3,62.8,30.06,North,9,3.6,4.6,63,0.00,CLR,,0.00,WeatherDisplay:10.37,2013-07-13 15:19:00,
2013-07-13 10:24:00,76.7,63.2,30.05,ENE,63,1.4,3.0,63,0.00,CLR,,0.00,WeatherDisplay:10.37,2013-07-13 15:24:00,
2013-07-13 10:29:00,77.0,63.9,30.05,NE,34,0.0,0.0,64,0.00,CLR,,0.00,WeatherDisplay:10.37,2013-07-13 15:29:00,
2013-07-13 10:34:00,77.6,63.5,30.05,NNE,15,2.7,3.5,62,0.00,CLR,,0.00,WeatherDisplay:10.37,2013-07-13 15:34:00,
2013-07-13 10:39:00,77.7,63.6,30.05,SSE,153,0.0,1.5,62,0.00,CLR,,0.00,WeatherDisplay:10.37,2013-07-13 15:39:00,
2013-07-13 10:44:00,78.1,63.6,30.05,SSE,167,0.0,0.0,61,0.00,CLR,,0.00,WeatherDisplay:10.37,2013-07-13 15:44:00,
2013-07-13 10:49:00,78.8,63.3,30.05,WSW,242,0.5,1.5,59,0.00,CLR,,0.00,WeatherDisplay:10.37,2013-07-13 15:49:00,
2013-07-13 10:54:00,79.4,63.3,30.05,SW,224,1.0,3.5,58,0.00,CLR,,0.00,WeatherDisplay:10.37,2013-07-13 15:54:00,
2013-07-13 10:59:00,79.6,64.0,30.05,South,173,0.2,1.1,59,0.00,CLR,,0.00,WeatherDisplay:10.37,2013-07-13 15:59:00,
2013-07-13 11:04:00,79.6,62.5,30.05,South,182,5.5,8.1,56,0.00,CLR,,0.00,WeatherDisplay:10.37,2013-07-13 16:04:00,
2013-07-13 11:09:00,79.4,60.8,30.05,NNE,26,6.7,8.1,53,0.00,CLR,,0.00,WeatherDisplay:10.37,2013-07-13 16:09:00,
2013-07-13 11:14:00,79.0,61.5,30.06,South,169,2.6,4.6,55,0.00,CLR,,0.00,WeatherDisplay:10.37,2013-07-13 16:14:00,
2013-07-13 11:19:00,79.2,62.1,30.06,South,185,0.6,3.5,56,0.00,CLR,,0.00,WeatherDisplay:10.37,2013-07-13 16:19:00,
2013-07-13 11:24:00,79.6,62.5,30.06,NE,46,0.0,0.0,56,0.00,CLR,,0.00,WeatherDisplay:10.37,2013-07-13 16:24:00,
2013-07-13 11:29:00,79.6,61.0,30.06,NNE,26,7.9,10.5,53,0.00,CLR,,0.00,WeatherDisplay:10.37,2013-07-13 16:29:00,
2013-07-13 11:34:00,79.8,62.7,30.06,ENE,61,2.7,5.8,56,0.00,CLR,,0.00,WeatherDisplay:10.37,2013-07-13 16:34:00,
2013-07-13 11:39:00,80.1,62.0,30.06,East,101,7.8,8.1,54,0.00,CLR,,0.00,WeatherDisplay:10.37,2013-07-13 16:39:00,
2013-07-13 11:44:00,80.1,62.5,30.06,SE,135,0.5,3.5,55,0.00,CLR,,0.00,WeatherDisplay:10.37,2013-07-13 16:44:00,
2013-07-13 11:49:00,80.3,62.7,30.06,South,173,2.7,4.6,55,0.00,CLR,,0.00,WeatherDisplay:10.37,2013-07-13 16:49:00,
2013-07-13 11:54:00,80.3,62.7,30.06,NE,51,0.0,3.5,55,0.00,SCT,,0.00,WeatherDisplay:10.37,2013-07-13 16:54:00,
2013-07-13 11:59:00,80.5,63.9,30.06,SE,126,0.4,3.5,57,0.00,SCT,,0.00,WeatherDisplay:10.37,2013-07-13 16:59:00,
2013-07-13 12:04:00,80.9,62.7,30.06,SE,134,0.2,3.5,54,0.00,SCT,,0.00,WeatherDisplay:10.37,2013-07-13 17:04:00,
2013-07-13 12:09:00,80.9,62.7,30.05,SE,126,2.2,4.6,54,0.00,SCT,,0.00,WeatherDisplay:10.37,2013-07-13 17:09:00,
2013-07-13 12:14:00,81.1,63.4,30.05,ENE,61,2.7,3.5,55,0.00,SCT,,0.00,WeatherDisplay:10.37,2013-07-13 17:14:00,
2013-07-13 12:19:00,80.9,63.2,30.05,NNW,334,1.1,5.8,55,0.00,SCT,,0.00,WeatherDisplay:10.37,2013-07-13 17:19:00,
2013-07-13 12:24:00,80.9,63.7,30.05,East,84,1.4,5.8,56,0.00,SCT,,0.00,WeatherDisplay:10.37,2013-07-13 17:24:00,
2013-07-13 12:29:00,80.3,62.7,30.05,ENE,64,2.6,8.1,55,0.00,SCT,,0.00,WeatherDisplay:10.37,2013-07-13 17:29:00,
2013-07-13 12:34:00,80.3,62.7,30.05,NE,46,5.0,9.2,55,0.00,SCT,,0.00,WeatherDisplay:10.37,2013-07-13 17:34:00,
2013-07-13 12:39:00,80.3,64.2,30.05,SE,146,0.1,1.1,58,0.00,SCT,,0.00,WeatherDisplay:10.37,2013-07-13 17:39:00,
2013-07-13 12:44:00,80.7,63.5,30.05,SE,140,0.5,3.5,56,0.00,SCT,,0.00,WeatherDisplay:10.37,2013-07-13 17:44:00,
2013-07-13 12:49:00,81.2,65.0,30.05,ENE,59,1.7,4.5,58,0.00,SCT,,0.00,WeatherDisplay:10.37,2013-07-13 17:49:00,
2013-07-13 12:54:00,81.2,62.4,30.04,NNE,29,2.6,5.8,53,0.00,CLR,,0.00,WeatherDisplay:10.37,2013-07-13 17:54:00,
2013-07-13 12:59:00,81.4,63.2,30.05,NE,45,1.0,1.5,54,0.00,CLR,,0.00,WeatherDisplay:10.37,2013-07-13 17:59:00,
2013-07-13 13:04:00,81.8,62.5,30.05,ENE,74,1.4,4.6,52,0.00,CLR,,0.00,WeatherDisplay:10.37,2013-07-13 18:04:00,
2013-07-13 13:09:00,81.8,61.9,30.04,ENE,61,2.1,5.8,51,0.00,CLR,,0.00,WeatherDisplay:10.37,2013-07-13 18:09:00,
2013-07-13 13:14:00,81.6,61.2,30.04,NE,36,4.3,4.6,50,0.00,CLR,,0.00,WeatherDisplay:10.37,2013-07-13 18:14:00,
2013-07-13 13:19:00,81.6,62.3,30.04,ENE,65,4.2,4.2,52,0.00,CLR,,0.00,WeatherDisplay:10.37,2013-07-13 18:19:00,
2013-07-13 13:24:00,81.6,62.3,30.03,SSE,159,0.6,1.1,52,0.00,CLR,,0.00,WeatherDisplay:10.37,2013-07-13 18:24:00,
2013-07-13 13:29:00,82.2,62.8,30.03,South,188,1.9,8.1,52,0.00,CLR,,0.00,WeatherDisplay:10.37,2013-07-13 18:29:00,
2013-07-13 13:34:00,82.2,63.4,30.03,ENE,63,2.4,4.6,53,0.00,CLR,,0.00,WeatherDisplay:10.37,2013-07-13 18:34:00,
2013-07-13 13:39:00,82.4,63.5,30.03,NNE,26,0.1,1.1,53,0.00,CLR,,0.00,WeatherDisplay:10.37,2013-07-13 18:39:00,
2013-07-13 13:44:00,83.0,63.0,30.03,NE,34,6.7,6.7,51,0.00,CLR,,0.00,WeatherDisplay:10.37,2013-07-13 18:44:00,
2013-07-13 13:49:00,83.0,63.6,30.03,SE,132,2.0,5.8,52,0.00,CLR,,0.00,WeatherDisplay:10.37,2013-07-13 18:49:00,
2013-07-13 13:54:00,82.6,62.6,30.03,ENE,74,2.1,3.5,51,0.00,SCT,,0.00,WeatherDisplay:10.37,2013-07-13 18:54:00,
2013-07-13 13:59:00,82.6,62.6,30.03,NNE,12,6.7,9.2,51,0.00,SCT,,0.00,WeatherDisplay:10.37,2013-07-13 18:59:00,
2013-07-13 14:04:00,82.4,62.5,30.02,NE,55,3.1,8.1,51,0.00,SCT,,0.00,WeatherDisplay:10.37,2013-07-13 19:04:00,
2013-07-13 14:09:00,82.2,62.8,30.02,NE,56,2.4,8.1,52,0.00,SCT,,0.00,WeatherDisplay:10.37,2013-07-13 19:09:00,
2013-07-13 14:14:00,82.8,63.9,30.02,ENE,60,3.2,4.6,53,0.00,SCT,,0.00,WeatherDisplay:10.37,2013-07-13 19:14:00,
2013-07-13 14:19:00,83.4,63.4,30.02,NE,34,3.3,4.6,51,0.00,SCT,,0.00,WeatherDisplay:10.37,2013-07-13 19:19:00,
2013-07-13 14:24:00,83.2,63.7,30.02,NE,56,4.3,8.1,52,0.00,SCT,,0.00,WeatherDisplay:10.37,2013-07-13 19:24:00,
2013-07-13 14:29:00,82.8,63.9,30.02,SW,236,1.5,3.5,53,0.00,SCT,,0.00,WeatherDisplay:10.37,2013-07-13 19:29:00,
2013-07-13 14:34:00,82.6,63.7,30.02,SSE,155,4.6,4.6,53,0.00,SCT,,0.00,WeatherDisplay:10.37,2013-07-13 19:34:00,
2013-07-13 14:39:00,82.8,63.9,30.02,South,182,0.6,3.5,53,0.00,SCT,,0.00,WeatherDisplay:10.37,2013-07-13 19:39:00,
2013-07-13 14:44:00,83.0,63.0,30.01,ENE,74,9.4,10.4,51,0.00,SCT,,0.00,WeatherDisplay:10.37,2013-07-13 19:44:00,
2013-07-13 14:49:00,82.8,63.4,30.02,NNE,30,13.1,13.1,52,0.00,SCT,,0.00,WeatherDisplay:10.37,2013-07-13 19:49:00,
2013-07-13 14:54:00,83.0,63.6,30.01,SSE,153,2.5,2.5,52,0.00,SCT,,0.00,WeatherDisplay:10.37,2013-07-13 19:54:00,
2013-07-13 14:59:00,83.2,63.2,30.01,NE,40,3.3,9.0,51,0.00,SCT,,0.00,WeatherDisplay:10.37,2013-07-13 19:59:00,
2013-07-13 15:04:00,83.2,64.3,30.01,South,188,0.3,1.1,53,0.00,SCT,,0.00,WeatherDisplay:10.37,2013-07-13 20:04:00,
2013-07-13 15:09:00,83.2,63.7,30.01,NE,55,8.6,13.8,52,0.00,SCT,,0.00,WeatherDisplay:10.37,2013-07-13 20:09:00,
2013-07-13 15:14:00,83.0,63.6,30.01,ENE,57,1.4,4.5,52,0.00,SCT,,0.00,WeatherDisplay:10.37,2013-07-13 20:14:00,
2013-07-13 15:19:00,82.8,62.8,30.00,WNW,298,0.6,4.6,51,0.00,SCT,,0.00,WeatherDisplay:10.37,2013-07-13 20:19:00,
2013-07-13 15:24:00,83.0,63.0,30.00,SSW,193,2.9,4.5,51,0.00,SCT,,0.00,WeatherDisplay:10.37,2013-07-13 20:24:00,
2013-07-13 15:29:00,83.0,63.6,30.00,East,97,2.2,3.5,52,0.00,SCT,,0.00,WeatherDisplay:10.37,2013-07-13 20:29:00,
2013-07-13 15:35:00,82.8,62.8,30.00,East,84,0.8,1.1,51,0.00,SCT,,0.00,WeatherDisplay:10.37,2013-07-13 20:35:00,
2013-07-13 15:40:00,82.6,63.7,30.00,NE,55,4.8,8.1,53,0.00,SCT,,0.00,WeatherDisplay:10.37,2013-07-13 20:40:00,
2013-07-13 15:45:00,82.6,62.6,30.00,ENE,57,3.7,4.6,51,0.00,SCT,,0.00,WeatherDisplay:10.37,2013-07-13 20:45:00,
2013-07-13 15:50:00,82.8,64.5,30.00,ENE,63,3.2,4.5,54,0.00,SCT,,0.00,WeatherDisplay:10.37,2013-07-13 20:50:00,
2013-07-13 15:55:00,83.4,63.9,30.00,East,79,1.5,4.6,52,0.00,SCT,,0.00,WeatherDisplay:10.37,2013-07-13 20:55:00,
2013-07-13 16:00:00,83.8,63.7,30.00,East,100,5.0,8.0,51,0.00,SCT,,0.00,WeatherDisplay:10.37,2013-07-13 21:00:00,
2013-07-13 16:05:00,83.6,63.0,30.00,ESE,110,2.0,8.0,50,0.00,SCT,,0.00,WeatherDisplay:10.37,2013-07-13 21:05:00,
2013-07-13 16:10:00,83.4,62.2,30.00,ENE,72,3.0,11.0,49,0.00,SCT,,0.00,WeatherDisplay:10.37,2013-07-13 21:10:00,
2013-07-13 16:15:00,83.1,62.0,30.00,ENE,61,3.0,12.0,49,0.00,SCT,,0.00,WeatherDisplay:10.37,2013-07-13 21:15:00,
2013-07-13 16:20:00,82.8,61.7,30.00,ENE,67,1.0,8.0,49,0.00,SCT,,0.00,WeatherDisplay:10.37,2013-07-13 21:20:00,
2013-07-13 16:25:00,83.4,62.8,30.00,SSE,147,1.5,3.5,50,0.00,SCT,,0.00,WeatherDisplay:10.37,2013-07-13 21:25:00,
2013-07-13 16:30:00,83.6,62.4,30.00,ENE,71,5.0,11.0,49,0.00,SCT,,0.00,WeatherDisplay:10.37,2013-07-13 21:30:00,
2013-07-13 16:35:00,83.4,62.2,30.00,ENE,71,8.0,18.0,49,0.00,SCT,,0.00,WeatherDisplay:10.37,2013-07-13 21:35:00,
2013-07-13 16:40:00,83.3,62.7,30.00,ENE,74,2.0,8.0,50,0.00,SCT,,0.00,WeatherDisplay:10.37,2013-07-13 21:40:00,
2013-07-13 16:45:00,83.4,62.8,30.00,East,86,7.0,9.0,50,0.00,SCT,,0.00,WeatherDisplay:10.37,2013-07-13 21:45:00,
2013-07-13 16:50:00,83.4,62.2,30.00,SSE,152,1.1,3.5,49,0.00,SCT,,0.00,WeatherDisplay:10.37,2013-07-13 21:50:00,
2013-07-13 16:55:00,83.8,62.6,30.00,NE,49,3.4,5.8,49,0.00,CLR,,0.00,WeatherDisplay:10.37,2013-07-13 21:55:00,
2013-07-13 17:00:00,83.8,62.6,30.00,ENE,73,0.0,3.0,49,0.00,CLR,,0.00,WeatherDisplay:10.37,2013-07-13 22:00:00,
2013-07-13 17:05:00,83.8,62.0,30.00,ESE,103,0.6,1.1,48,0.00,CLR,,0.00,WeatherDisplay:10.37,2013-07-13 22:05:00,
2013-07-13 17:10:00,83.8,62.0,30.00,NNW,343,6.4,9.2,48,0.00,CLR,,0.00,WeatherDisplay:10.37,2013-07-13 22:10:00,
2013-07-13 17:15:00,83.6,62.4,30.00,ESE,113,1.1,3.5,49,0.00,CLR,,0.00,WeatherDisplay:10.37,2013-07-13 22:15:00,
2013-07-13 17:20:00,83.8,62.6,30.00,NNE,24,1.2,4.6,49,0.00,CLR,,0.00,WeatherDisplay:10.37,2013-07-13 22:20:00,
2013-07-13 17:25:00,83.6,61.8,30.00,SE,142,2.4,8.1,48,0.00,CLR,,0.00,WeatherDisplay:10.37,2013-07-13 22:25:00,
2013-07-13 17:30:00,83.4,62.2,30.00,North,360,1.7,3.5,49,0.00,CLR,,0.00,WeatherDisplay:10.37,2013-07-13 22:30:00,
2013-07-13 17:35:00,83.4,62.8,30.00,East,82,0.9,1.1,50,0.00,CLR,,0.00,WeatherDisplay:10.37,2013-07-13 22:35:00,
2013-07-13 17:40:00,83.2,62.6,30.00,South,185,3.4,3.5,50,0.00,CLR,,0.00,WeatherDisplay:10.37,2013-07-13 22:40:00,
2013-07-13 17:45:00,83.0,62.4,30.00,SSW,198,0.5,1.1,50,0.00,CLR,,0.00,WeatherDisplay:10.37,2013-07-13 22:45:00,
2013-07-13 17:50:00,83.2,62.6,30.00,NNW,340,1.8,3.5,50,0.00,CLR,,0.00,WeatherDisplay:10.37,2013-07-13 22:50:00,
2013-07-13 17:55:00,83.0,63.0,30.00,SE,126,1.9,4.6,51,0.00,CLR,,0.00,WeatherDisplay:10.37,2013-07-13 22:55:00,
2013-07-13 18:00:00,83.0,62.4,30.00,SSE,157,0.5,1.1,50,0.00,CLR,,0.00,WeatherDisplay:10.37,2013-07-13 23:00:00,
2013-07-13 18:05:00,83.0,62.4,30.00,East,96,1.1,3.5,50,0.00,CLR,,0.00,WeatherDisplay:10.37,2013-07-13 23:05:00,
2013-07-13 18:10:00,83.0,63.0,30.00,SSE,148,1.9,3.5,51,0.00,CLR,,0.00,WeatherDisplay:10.37,2013-07-13 23:10:00,
2013-07-13 18:15:00,82.8,62.8,30.00,ENE,67,1.5,6.0,51,0.00,CLR,,0.00,WeatherDisplay:10.37,2013-07-13 23:15:00,
2013-07-13 18:20:00,83.0,63.0,29.99,East,99,1.5,3.5,51,0.00,CLR,,0.00,WeatherDisplay:10.37,2013-07-13 23:20:00,
2013-07-13 18:25:00,82.8,63.4,29.99,South,189,0.1,1.1,52,0.00,CLR,,0.00,WeatherDisplay:10.37,2013-07-13 23:25:00,
2013-07-13 18:30:00,82.6,63.2,30.00,NE,38,4.5,13.5,52,0.00,CLR,,0.00,WeatherDisplay:10.37,2013-07-13 23:30:00,
2013-07-13 18:35:00,82.4,63.0,30.00,SW,232,0.1,1.1,52,0.00,CLR,,0.00,WeatherDisplay:10.37,2013-07-13 23:35:00,
2013-07-13 18:40:00,82.2,63.9,30.00,ENE,60,3.1,5.8,54,0.00,CLR,,0.00,WeatherDisplay:10.37,2013-07-13 23:40:00,
2013-07-13 18:45:00,82.0,63.7,30.00,ENE,60,0.6,0.0,54,0.00,CLR,,0.00,WeatherDisplay:10.37,2013-07-13 23:45:00,
2013-07-13 18:50:00,82.0,63.7,30.00,South,186,0.3,1.5,54,0.00,CLR,,0.00,WeatherDisplay:10.37,2013-07-13 23:50:00,
2013-07-13 18:55:00,81.8,64.1,30.00,SSW,198,0.8,1.5,55,0.00,CLR,,0.00,WeatherDisplay:10.37,2013-07-13 23:55:00,
2013-07-13 19:00:00,81.6,63.9,30.00,SSE,167,2.4,4.6,55,0.00,CLR,,0.00,WeatherDisplay:10.37,2013-07-14 00:00:00,
2013-07-13 19:05:00,81.4,63.7,30.00,ENE,65,0.0,1.1,55,0.00,CLR,,0.00,WeatherDisplay:10.37,2013-07-14 00:05:00,
2013-07-13 19:10:00,81.2,64.0,30.00,NE,51,0.5,1.1,56,0.00,CLR,,0.00,WeatherDisplay:10.37,2013-07-14 00:10:00,
2013-07-13 19:15:00,81.1,64.4,30.00,ENE,59,0.4,1.1,57,0.00,CLR,,0.00,WeatherDisplay:10.37,2013-07-14 00:15:00,
2013-07-13 19:20:00,80.7,64.5,30.00,NNE,18,1.2,3.5,58,0.00,CLR,,0.00,WeatherDisplay:10.37,2013-07-14 00:20:00,
2013-07-13 19:25:00,80.5,64.4,30.00,NNE,17,0.4,1.1,58,0.00,CLR,,0.00,WeatherDisplay:10.37,2013-07-14 00:25:00,
2013-07-13 19:30:00,80.5,64.9,30.00,NE,43,0.5,0.0,59,0.00,CLR,,0.00,WeatherDisplay:10.37,2013-07-14 00:30:00,
2013-07-13 19:35:00,80.3,64.7,30.00,NE,39,0.4,3.5,59,0.00,CLR,,0.00,WeatherDisplay:10.37,2013-07-14 00:35:00,
2013-07-13 19:40:00,80.1,65.0,30.00,NE,39,1.1,3.5,60,0.00,CLR,,0.00,WeatherDisplay:10.37,2013-07-14 00:40:00,
2013-07-13 19:45:00,79.9,65.2,30.00,NE,52,2.4,4.6,61,0.00,CLR,,0.00,WeatherDisplay:10.37,2013-07-14 00:45:00,
2013-07-13 19:50:00,79.8,65.2,30.00,NE,53,2.3,3.5,61,0.00,CLR,,0.00,WeatherDisplay:10.37,2013-07-14 00:50:00,
2013-07-13 19:55:00,79.8,65.2,30.00,NNE,20,0.5,1.1,61,0.00,CLR,,0.00,WeatherDisplay:10.37,2013-07-14 00:55:00,
2013-07-13 20:00:00,79.6,65.4,30.00,NE,41,0.9,0.0,62,0.00,CLR,,0.00,WeatherDisplay:10.37,2013-07-14 01:00:00,
2013-07-13 20:05:00,79.6,65.4,30.00,NE,41,0.0,0.0,62,0.00,CLR,,0.00,WeatherDisplay:10.37,2013-07-14 01:05:00,
2013-07-13 20:10:00,79.4,65.2,30.00,NE,41,0.2,0.0,62,0.00,CLR,,0.00,WeatherDisplay:10.37,2013-07-14 01:10:00,
2013-07-13 20:15:00,79.2,65.5,30.00,NNE,20,0.0,1.1,63,0.00,CLR,,0.00,WeatherDisplay:10.37,2013-07-14 01:15:00,
2013-07-13 20:20:00,79.2,65.5,30.00,NNE,20,1.8,3.5,63,0.00,CLR,,0.00,WeatherDisplay:10.37,2013-07-14 01:20:00,
2013-07-13 20:25:00,79.2,65.5,30.00,NE,53,0.0,3.5,63,0.00,CLR,,0.00,WeatherDisplay:10.37,2013-07-14 01:25:00,
2013-07-13 20:30:00,79.0,65.3,30.00,NE,34,2.1,2.1,63,0.00,CLR,,0.00,WeatherDisplay:10.37,2013-07-14 01:30:00,
2013-07-13 20:35:00,78.8,65.6,30.01,NE,37,1.2,3.5,64,0.00,CLR,,0.00,WeatherDisplay:10.37,2013-07-14 01:35:00,
2013-07-13 20:40:00,78.6,65.4,30.01,NE,37,2.5,2.5,64,0.00,CLR,,0.00,WeatherDisplay:10.37,2013-07-14 01:40:00,
2013-07-13 20:45:00,78.5,65.8,30.01,NE,37,0.0,0.0,65,0.00,CLR,,0.00,WeatherDisplay:10.37,2013-07-14 01:45:00,
2013-07-13 20:50:00,78.1,65.4,30.01,NE,37,0.0,0.0,65,0.00,CLR,,0.00,WeatherDisplay:10.37,2013-07-14 01:50:00,
2013-07-13 20:55:00,77.9,65.6,30.01,NE,37,0.0,1.1,66,0.00,BKN,,0.00,WeatherDisplay:10.37,2013-07-14 01:55:00,
2013-07-13 21:00:00,77.6,65.3,30.01,NE,37,0.0,0.0,66,0.00,BKN,,0.00,WeatherDisplay:10.37,2013-07-14 02:00:00,
2013-07-13 21:05:00,77.4,65.6,30.01,NE,38,0.0,0.0,67,0.00,BKN,,0.00,WeatherDisplay:10.37,2013-07-14 02:05:00,
2013-07-13 21:10:00,77.0,65.2,30.01,NE,37,0.0,0.0,67,0.00,BKN,,0.00,WeatherDisplay:10.37,2013-07-14 02:10:00,
2013-07-13 21:15:00,76.8,65.4,30.02,NE,37,0.0,0.0,68,0.00,SCT,,0.00,WeatherDisplay:10.37,2013-07-14 02:15:00,
2013-07-13 21:16:00,76.8,65.4,30.02,NE,37,0.0,0.0,68,0.00,SCT,,0.00,WeatherDisplay:10.37,2013-07-14 02:16:00,
2013-07-13 21:21:00,76.7,65.3,30.02,NE,37,0.0,0.0,68,0.00,SCT,,0.00,WeatherDisplay:10.37,2013-07-14 02:21:00,
2013-07-13 21:26:00,76.5,65.1,30.02,NE,38,0.0,0.0,68,0.00,SCT,,0.00,WeatherDisplay:10.37,2013-07-14 02:26:00,
2013-07-13 21:31:00,76.3,65.4,30.03,NE,37,0.0,0.0,69,0.00,CLR,,0.00,WeatherDisplay:10.37,2013-07-14 02:31:00,
2013-07-13 21:36:00,76.1,65.2,30.03,NE,37,0.0,0.0,69,0.00,CLR,,0.00,WeatherDisplay:10.37,2013-07-14 02:36:00,
2013-07-13 21:41:00,76.1,65.2,30.03,NE,38,0.1,1.1,69,0.00,CLR,,0.00,WeatherDisplay:10.37,2013-07-14 02:41:00,
2013-07-13 21:46:00,76.0,65.1,30.03,NE,38,0.0,0.0,69,0.00,CLR,,0.00,WeatherDisplay:10.37,2013-07-14 02:46:00,
2013-07-13 21:51:00,76.0,65.1,30.03,NE,38,0.0,0.0,69,0.00,CLR,,0.00,WeatherDisplay:10.37,2013-07-14 02:51:00,
2013-07-13 21:56:00,75.8,64.9,30.03,NE,38,0.0,0.0,69,0.00,CLR,,0.00,WeatherDisplay:10.37,2013-07-14 02:56:00,
2013-07-13 22:01:00,75.8,64.9,30.02,NE,38,0.0,0.0,69,0.00,CLR,,0.00,WeatherDisplay:10.37,2013-07-14 03:01:00,
2013-07-13 22:06:00,75.6,64.7,30.03,NE,38,0.0,0.0,69,0.00,CLR,,0.00,WeatherDisplay:10.37,2013-07-14 03:06:00,
2013-07-13 22:11:00,75.6,64.7,30.03,NE,38,0.0,0.0,69,0.00,CLR,,0.00,WeatherDisplay:10.37,2013-07-14 03:11:00,
2013-07-13 22:16:00,75.4,64.9,30.03,NE,38,0.0,0.0,70,0.00,CLR,,0.00,WeatherDisplay:10.37,2013-07-14 03:16:00,
2013-07-13 22:21:00,75.3,64.8,30.03,NE,38,0.0,0.0,70,0.00,CLR,,0.00,WeatherDisplay:10.37,2013-07-14 03:21:00,
2013-07-13 22:26:00,75.1,64.6,30.03,NE,38,0.0,0.0,70,0.00,CLR,,0.00,WeatherDisplay:10.37,2013-07-14 03:26:00,
2013-07-13 22:31:00,74.9,64.5,30.03,NE,38,1.1,1.1,70,0.00,CLR,,0.00,WeatherDisplay:10.37,2013-07-14 03:31:00,
2013-07-13 22:36:00,74.9,64.5,30.03,NE,40,0.1,3.5,70,0.00,CLR,,0.00,WeatherDisplay:10.37,2013-07-14 03:36:00,
2013-07-13 22:41:00,74.9,64.5,30.03,NE,40,0.0,0.0,70,0.00,CLR,,0.00,WeatherDisplay:10.37,2013-07-14 03:41:00,
2013-07-13 22:46:00,74.9,64.5,30.03,NE,40,0.0,0.0,70,0.00,CLR,,0.00,WeatherDisplay:10.37,2013-07-14 03:46:00,
2013-07-13 22:51:00,74.7,64.7,30.02,NE,40,0.0,0.0,71,0.00,CLR,,0.00,WeatherDisplay:10.37,2013-07-14 03:51:00,
2013-07-13 22:56:00,74.7,64.7,30.02,NE,39,0.0,3.5,71,0.00,CLR,,0.00,WeatherDisplay:10.37,2013-07-14 03:56:00,
2013-07-13 23:01:00,74.6,64.6,30.02,NE,40,0.0,0.0,71,0.00,CLR,,0.00,WeatherDisplay:10.37,2013-07-14 04:01:00,
2013-07-13 23:06:00,74.6,64.6,30.02,NE,45,0.0,0.0,71,0.00,CLR,,0.00,WeatherDisplay:10.37,2013-07-14 04:06:00,
2013-07-13 23:11:00,74.4,64.4,30.03,NE,45,0.0,0.0,71,0.00,CLR,,0.00,WeatherDisplay:10.37,2013-07-14 04:11:00,
2013-07-13 23:16:00,74.2,64.2,30.03,NE,45,0.0,0.0,71,0.00,CLR,,0.00,WeatherDisplay:10.37,2013-07-14 04:16:00,
2013-07-13 23:21:00,74.0,64.4,30.03,NE,45,0.0,0.0,72,0.00,CLR,,0.00,WeatherDisplay:10.37,2013-07-14 04:21:00,
2013-07-13 23:26:00,73.9,64.3,30.03,NE,45,0.0,0.0,72,0.00,CLR,,0.00,WeatherDisplay:10.37,2013-07-14 04:26:00,
2013-07-13 23:31:00,73.7,64.1,30.03,NE,45,0.0,0.0,72,0.00,CLR,,0.00,WeatherDisplay:10.37,2013-07-14 04:31:00,
2013-07-13 23:36:00,73.5,64.3,30.03,NE,45,0.0,0.0,73,0.00,CLR,,0.00,WeatherDisplay:10.37,2013-07-14 04:36:00,
2013-07-13 23:41:00,73.3,64.1,30.03,NE,45,0.0,0.0,73,0.00,CLR,,0.00,WeatherDisplay:10.37,2013-07-14 04:41:00,
2013-07-13 23:46:00,73.2,64.4,30.04,NE,45,0.0,0.0,74,0.00,CLR,,0.00,WeatherDisplay:10.37,2013-07-14 04:46:00,
2013-07-13 23:51:00,73.0,64.2,30.04,NE,45,0.0,0.0,74,0.00,CLR,,0.00,WeatherDisplay:10.37,2013-07-14 04:51:00,
2013-07-13 23:56:00,72.8,64.0,30.04,NE,45,0.0,0.0,74,0.00,CLR,,0.00,WeatherDisplay:10.37,2013-07-14 04:56:00,